| time (UTC) | temp C | wind direction | speed KPH | gust KPH | rain 1hr cm | rain 24hr cm | rain mn cm | humidity % | barometer mb |
| 20260502170120 | 19 | 297 | 1.6 | 8.0 | 0.00 | 0.10 | 0.10 | 62 | 1012.6 |
| 20260502162553 | 17 | 295 | 3.2 | 6.4 | 0.00 | 0.10 | 0.10 | 66 | 1012.9 |
| 20260502162058 | 17 | 272 | 1.6 | 3.2 | 0.00 | 0.10 | 0.10 | 67 | 1013.0 |
| 20260502161058 | 16 | 272 | 1.6 | 4.8 | 0.00 | 0.10 | 0.10 | 71 | 1013.0 |
| 20260502160546 | 16 | 272 | 3.2 | 4.8 | 0.00 | 0.10 | 0.10 | 70 | 1013.1 |
| 20260502152055 | 15 | 321 | 0.0 | 3.2 | 0.00 | 0.10 | 0.10 | 79 | 1013.3 |
| 20260502151603 | 14 | 321 | 1.6 | 3.2 | 0.00 | 0.10 | 0.10 | 79 | 1013.3 |
| 20260502151051 | 14 | 321 | 1.6 | 3.2 | 0.00 | 0.10 | 0.10 | 77 | 1013.2 |
| 20260502150606 | 14 | 319 | 1.6 | 3.2 | 0.00 | 0.10 | 0.10 | 79 | 1013.1 |
| 20260502140107 | 12 | 158 | 0.0 | 1.6 | 0.00 | 0.10 | 0.10 | 91 | 1012.6 |
| 20260502130549 | 11 | 160 | 0.0 | 0.0 | 0.03 | 0.10 | 0.10 | 95 | 1011.8 |
| 20260502123602 | 11 | 160 | 0.0 | 0.0 | 0.00 | 0.08 | 0.08 | 95 | 1012.9 |
| 20260502123056 | 11 | 160 | 0.0 | 0.0 | 0.00 | 0.08 | 0.08 | 95 | 1013.5 |
| 20260502122602 | 11 | 160 | 0.0 | 0.0 | 0.00 | 0.08 | 0.08 | 95 | 1013.4 |
| 20260502122054 | 11 | 160 | 0.0 | 0.0 | 0.00 | 0.08 | 0.08 | 95 | 1013.0 |
| 20260502121602 | 11 | 160 | 0.0 | 0.0 | 0.03 | 0.08 | 0.08 | 95 | 1012.5 |
| 20260502121054 | 11 | 160 | 0.0 | 0.0 | 0.03 | 0.08 | 0.08 | 95 | 1012.3 |
| 20260502115554 | 11 | 160 | 0.0 | 0.0 | 0.03 | 0.08 | 0.08 | 95 | 1012.1 |
| 20260502115104 | 11 | 160 | 0.0 | 0.0 | 0.03 | 0.08 | 0.08 | 95 | 1012.3 |
| 20260502115006 | 11 | 160 | 0.0 | 0.0 | 0.03 | 0.08 | 0.08 | 95 | 1011.9 |
| 20260502114603 | 11 | 160 | 0.0 | 0.0 | 0.03 | 0.08 | 0.08 | 95 | 1012.8 |
| 20260502114054 | 11 | 160 | 0.0 | 0.0 | 0.03 | 0.08 | 0.08 | 95 | 1012.7 |
| 20260502113545 | 11 | 160 | 0.0 | 0.0 | 0.03 | 0.08 | 0.08 | 95 | 1012.1 |
| 20260502113058 | 12 | 160 | 0.0 | 0.0 | 0.03 | 0.08 | 0.08 | 95 | 1011.7 |
| 20260502112545 | 12 | 159 | 0.0 | 0.0 | 0.03 | 0.08 | 0.08 | 95 | 1011.5 |
| 20260502112051 | 12 | 159 | 0.0 | 0.0 | 0.03 | 0.08 | 0.08 | 95 | 1012.0 |
| 20260502111556 | 12 | 159 | 0.0 | 0.0 | 0.00 | 0.05 | 0.05 | 95 | 1011.9 |
| 20260502111048 | 12 | 159 | 0.0 | 0.0 | 0.00 | 0.05 | 0.05 | 95 | 1012.0 |
| 20260502110559 | 12 | 159 | 0.0 | 0.0 | 0.00 | 0.05 | 0.05 | 95 | 1012.3 |
| 20260502110117 | 12 | 159 | 0.0 | 0.0 | 0.00 | 0.05 | 0.05 | 95 | 1012.6 |
| 20260502105555 | 12 | 160 | 0.0 | 0.0 | 0.00 | 0.05 | 0.05 | 95 | 1012.7 |
| 20260502105047 | 12 | 159 | 0.0 | 0.0 | 0.00 | 0.05 | 0.05 | 95 | 1012.7 |
| 20260502104553 | 12 | 160 | 0.0 | 0.0 | 0.00 | 0.05 | 0.05 | 95 | 1012.7 |
| 20260502104100 | 12 | 159 | 0.0 | 1.6 | 0.00 | 0.05 | 0.05 | 95 | 1012.8 |
| 20260502103549 | 12 | 159 | 0.0 | 4.8 | 0.00 | 0.05 | 0.05 | 95 | 1013.1 |
| 20260502103057 | 12 | 158 | 1.6 | 4.8 | 0.00 | 0.05 | 0.05 | 95 | 1013.0 |
| 20260502102545 | 12 | 178 | 1.6 | 4.8 | 0.00 | 0.05 | 0.05 | 95 | 1012.7 |
| 20260502102053 | 12 | 40 | 0.0 | 1.6 | 0.00 | 0.05 | 0.05 | 95 | 1012.3 |
| 20260502101601 | 12 | 40 | 0.0 | 1.6 | 0.00 | 0.05 | 0.05 | 95 | 1011.8 |
| 20260502101050 | 12 | 40 | 0.0 | 1.6 | 0.00 | 0.05 | 0.05 | 95 | 1012.0 |
| 20260502100556 | 12 | 40 | 0.0 | 0.0 | 0.00 | 0.05 | 0.05 | 95 | 1011.6 |
| 20260502091106 | 13 | 40 | 0.0 | 0.0 | 0.00 | 0.05 | 0.05 | 95 | 1011.6 |
| 20260502090553 | 13 | 40 | 0.0 | 0.0 | 0.00 | 0.05 | 0.05 | 95 | 1011.6 |
| 20260502071103 | 13 | 40 | 0.0 | 0.0 | 0.03 | 0.03 | 0.03 | 94 | 1012.1 |
| 20260502070552 | 13 | 40 | 0.0 | 0.0 | 0.03 | 0.03 | 0.03 | 94 | 1012.3 |
| 20260502065102 | 14 | 40 | 0.0 | 0.0 | 0.00 | 0.00 | 0.00 | 93 | 1012.6 |
| 20260502064554 | 14 | 40 | 0.0 | 0.0 | 0.00 | 0.00 | 0.00 | 93 | 1012.7 |
| 20260502064058 | 14 | 40 | 0.0 | 0.0 | 0.00 | 0.00 | 0.00 | 93 | 1012.8 |
| 20260502063545 | 14 | 40 | 0.0 | 0.0 | 0.00 | 0.00 | 0.00 | 93 | 1012.8 |
| 20260502062603 | 14 | 40 | 0.0 | 1.6 | 0.00 | 0.00 | 0.00 | 93 | 1012.8 |
| 20260502062053 | 14 | 40 | 0.0 | 0.0 | 0.00 | 0.00 | 0.00 | 93 | 1012.8 |
| 20260502061602 | 14 | 40 | 0.0 | 1.6 | 0.00 | 0.00 | 0.00 | 92 | 1012.8 |
| 20260502061056 | 14 | 40 | 0.0 | 1.6 | 0.00 | 0.00 | 0.00 | 92 | 1012.9 |
| 20260502060049 | 14 | 40 | 0.0 | 0.0 | 0.00 | 0.00 | 0.00 | 92 | 1012.9 |
| 20260502055556 | 14 | 40 | 0.0 | 0.0 | 0.00 | 0.00 | 0.00 | 91 | 1013.0 |
| 20260502055100 | 14 | 40 | 0.0 | 0.0 | 0.00 | 0.00 | 0.00 | 91 | 1013.0 |
| 20260502054549 | 14 | 40 | 0.0 | 0.0 | 0.00 | 0.00 | 0.00 | 91 | 1012.9 |
| 20260502054102 | 14 | 40 | 0.0 | 0.0 | 0.00 | 0.00 | 0.00 | 90 | 1012.9 |
| 20260502053552 | 14 | 40 | 0.0 | 1.6 | 0.00 | 0.00 | 0.00 | 90 | 1012.9 |
| 20260502052546 | 14 | 40 | 0.0 | 0.0 | 0.00 | 0.00 | 0.00 | 89 | 1013.1 |
| 20260502052056 | 14 | 40 | 0.0 | 0.0 | 0.00 | 0.00 | 0.00 | 89 | 1013.0 |
| 20260502051544 | 15 | 40 | 0.0 | 1.6 | 0.00 | 0.00 | 0.00 | 89 | 1013.1 |
| 20260502051054 | 15 | 40 | 0.0 | 1.6 | 0.00 | 0.00 | 0.00 | 89 | 1013.0 |
| 20260502050601 | 15 | 40 | 0.0 | 0.0 | 0.00 | 0.00 | 0.00 | 89 | 1012.8 |
| 20260502050052 | 15 | 40 | 0.0 | 0.0 | 0.00 | 0.00 | 0.00 | 89 | 1012.7 |
| 20260502045557 | 15 | 40 | 0.0 | 1.6 | 0.00 | 0.00 | 0.00 | 89 | 1012.9 |
| 20260502045045 | 15 | 40 | 0.0 | 1.6 | 0.00 | 0.00 | 0.00 | 89 | 1013.0 |
| 20260502044549 | 15 | 40 | 0.0 | 1.6 | 0.00 | 0.00 | 0.00 | 88 | 1013.1 |
| 20260502044058 | 15 | 40 | 0.0 | 0.0 | 0.00 | 0.00 | 0.00 | 88 | 1013.0 |
| 20260502043547 | 15 | 40 | 0.0 | 0.0 | 0.00 | 0.00 | 0.00 | 88 | 1012.8 |
| 20260502043055 | 15 | 40 | 0.0 | 0.0 | 0.00 | 0.00 | 0.00 | 88 | 1012.9 |
| 20260502042600 | 15 | 40 | 0.0 | 0.0 | 0.00 | 0.00 | 0.00 | 88 | 1012.9 |
| 20260502042050 | 15 | 40 | 0.0 | 0.0 | 0.00 | 0.00 | 0.00 | 88 | 1012.9 |
| 20260502041603 | 15 | 40 | 0.0 | 1.6 | 0.00 | 0.00 | 0.00 | 88 | 1012.9 |
| 20260502041047 | 15 | 40 | 0.0 | 1.6 | 0.00 | 0.00 | 0.00 | 88 | 1013.1 |
| 20260502040555 | 15 | 40 | 0.0 | 1.6 | 0.00 | 0.00 | 0.00 | 88 | 1013.3 |
| 20260502040510 | 14 | 40 | 0.0 | 1.6 | 0.00 | 0.00 | 0.00 | 88 | 1012.8 |
| 20260502040115 | 15 | 40 | 0.0 | 0.0 | 0.00 | 0.00 | 0.00 | 88 | 1013.4 |
| 20260502035558 | 15 | 40 | 0.0 | 0.0 | 0.00 | 0.00 | 0.00 | 88 | 1013.5 |
| 20260502034557 | 15 | 40 | 0.0 | 0.0 | 0.00 | 0.00 | 0.00 | 87 | 1013.5 |
| 20260502034047 | 15 | 40 | 0.0 | 0.0 | 0.00 | 0.00 | 0.00 | 87 | 1013.5 |
| 20260502033556 | 15 | 40 | 0.0 | 0.0 | 0.00 | 0.00 | 0.00 | 87 | 1013.5 |
| 20260502033104 | 15 | 40 | 0.0 | 0.0 | 0.00 | 0.00 | 0.00 | 87 | 1013.7 |
| 20260502032547 | 15 | 40 | 0.0 | 0.0 | 0.00 | 0.00 | 0.00 | 87 | 1013.6 |
| 20260502032057 | 15 | 40 | 0.0 | 0.0 | 0.00 | 0.00 | 0.00 | 87 | 1013.5 |
| 20260502031549 | 15 | 40 | 0.0 | 0.0 | 0.00 | 0.00 | 0.00 | 87 | 1013.6 |
| 20260502031056 | 15 | 40 | 0.0 | 0.0 | 0.00 | 0.00 | 0.00 | 87 | 1013.7 |
| 20260502030544 | 15 | 40 | 0.0 | 0.0 | 0.00 | 0.00 | 0.00 | 87 | 1013.7 |
| 20260502030127 | 15 | 40 | 0.0 | 0.0 | 0.00 | 0.00 | 0.00 | 87 | 1013.7 |
| 20260502024045 | 15 | 40 | 0.0 | 0.0 | 0.00 | 0.00 | 0.00 | 86 | 1013.7 |
| 20260502023553 | 15 | 40 | 0.0 | 0.0 | 0.00 | 0.00 | 0.00 | 86 | 1013.7 |
| 20260502023103 | 15 | 40 | 0.0 | 0.0 | 0.00 | 0.00 | 0.00 | 86 | 1013.7 |
| 20260502022547 | 15 | 40 | 0.0 | 1.6 | 0.00 | 0.00 | 0.00 | 86 | 1013.7 |
| 20260502022058 | 15 | 40 | 0.0 | 1.6 | 0.00 | 0.00 | 0.00 | 86 | 1013.7 |
| 20260502021546 | 15 | 40 | 0.0 | 0.0 | 0.00 | 0.00 | 0.00 | 86 | 1013.8 |
| 20260502021055 | 15 | 40 | 0.0 | 1.6 | 0.00 | 0.00 | 0.00 | 86 | 1013.7 |
| 20260502020546 | 15 | 40 | 0.0 | 1.6 | 0.00 | 0.00 | 0.00 | 85 | 1013.7 |
| 20260502020056 | 15 | 40 | 0.0 | 1.6 | 0.00 | 0.00 | 0.00 | 85 | 1013.6 |
| 20260502015556 | 15 | 40 | 0.0 | 3.2 | 0.00 | 0.00 | 0.00 | 85 | 1013.5 |
| 20260502014602 | 15 | 6 | 0.0 | 0.0 | 0.00 | 0.00 | 0.00 | 85 | 1013.4 |
| 20260502014054 | 15 | 6 | 0.0 | 0.0 | 0.00 | 0.00 | 0.00 | 85 | 1013.3 |
| 20260502013547 | 15 | 6 | 0.0 | 0.0 | 0.00 | 0.00 | 0.00 | 85 | 1013.2 |
| 20260502013059 | 15 | 6 | 0.0 | 0.0 | 0.00 | 0.00 | 0.00 | 85 | 1013.2 |
| 20260502012550 | 15 | 6 | 0.0 | 0.0 | 0.00 | 0.00 | 0.00 | 85 | 1013.1 |
| 20260502012101 | 15 | 6 | 0.0 | 0.0 | 0.00 | 0.00 | 0.00 | 84 | 1013.0 |
| 20260502011553 | 15 | 6 | 0.0 | 0.0 | 0.00 | 0.00 | 0.00 | 84 | 1012.9 |
| 20260502011103 | 15 | 6 | 0.0 | 0.0 | 0.00 | 0.00 | 0.00 | 84 | 1012.9 |
| 20260502010552 | 15 | 6 | 0.0 | 0.0 | 0.00 | 0.00 | 0.00 | 83 | 1012.8 |
| 20260502010059 | 15 | 6 | 0.0 | 0.0 | 0.00 | 0.00 | 0.00 | 84 | 1012.8 |
| 20260502005546 | 15 | 6 | 0.0 | 0.0 | 0.00 | 0.00 | 0.00 | 83 | 1012.7 |
| 20260502005058 | 15 | 6 | 0.0 | 0.0 | 0.00 | 0.00 | 0.00 | 83 | 1012.7 |
| 20260502004551 | 15 | 6 | 0.0 | 0.0 | 0.00 | 0.00 | 0.00 | 82 | 1012.6 |
| 20260502004059 | 15 | 6 | 0.0 | 0.0 | 0.00 | 0.00 | 0.00 | 82 | 1012.6 |
| 20260502003549 | 15 | 6 | 0.0 | 0.0 | 0.00 | 0.00 | 0.00 | 83 | 1012.6 |
| 20260502003055 | 15 | 6 | 0.0 | 0.0 | 0.00 | 0.00 | 0.00 | 83 | 1012.7 |
| 20260502002602 | 16 | 6 | 0.0 | 1.6 | 0.00 | 0.00 | 0.00 | 82 | 1012.8 |
| 20260502002056 | 16 | 6 | 0.0 | 1.6 | 0.00 | 0.00 | 0.00 | 81 | 1012.7 |
| 20260502001548 | 16 | 6 | 0.0 | 0.0 | 0.00 | 0.00 | 0.00 | 81 | 1012.7 |
| 20260502001100 | 16 | 6 | 0.0 | 0.0 | 0.00 | 0.00 | 0.00 | 81 | 1012.6 |
| 20260502000109 | 16 | 6 | 0.0 | 0.0 | 0.00 | 0.00 | 0.00 | 80 | 1012.5 |
| 20260501235552 | 16 | 6 | 0.0 | 0.0 | 0.00 | 0.00 | 0.00 | 79 | 1012.5 |
| 20260501235058 | 16 | 6 | 0.0 | 0.0 | 0.00 | 0.00 | 0.00 | 79 | 1012.5 |
| 20260501234607 | 16 | 6 | 0.0 | 0.0 | 0.00 | 0.00 | 0.00 | 79 | 1012.5 |
| 20260501233101 | 16 | 6 | 0.0 | 0.0 | 0.00 | 0.00 | 0.00 | 76 | 1012.2 |
| 20260501232044 | 16 | 6 | 0.0 | 0.0 | 0.00 | 0.00 | 0.00 | 76 | 1012.4 |
| 20260501231049 | 16 | 6 | 0.0 | 0.0 | 0.00 | 0.00 | 0.00 | 77 | 1012.5 |
| 20260501230600 | 16 | 6 | 0.0 | 1.6 | 0.00 | 0.00 | 0.00 | 76 | 1012.5 |
| 20260501230053 | 16 | 6 | 0.0 | 1.6 | 0.00 | 0.00 | 0.00 | 76 | 1012.4 |
| 20260501225600 | 16 | 32 | 0.0 | 1.6 | 0.00 | 0.00 | 0.00 | 75 | 1012.3 |
| 20260501224547 | 16 | 32 | 0.0 | 0.0 | 0.00 | 0.00 | 0.00 | 74 | 1012.6 |
| 20260501224056 | 17 | 32 | 0.0 | 1.6 | 0.00 | 0.00 | 0.00 | 74 | 1012.6 |
| 20260501223602 | 17 | 32 | 0.0 | 1.6 | 0.00 | 0.00 | 0.00 | 72 | 1012.5 |
| 20260501223053 | 17 | 32 | 0.0 | 0.0 | 0.00 | 0.00 | 0.00 | 71 | 1012.3 |
| 20260501222604 | 17 | 32 | 0.0 | 1.6 | 0.00 | 0.00 | 0.00 | 70 | 1012.2 |
| 20260501222056 | 17 | 32 | 0.0 | 1.6 | 0.00 | 0.00 | 0.00 | 69 | 1011.9 |
| 20260501221547 | 17 | 32 | 0.0 | 1.6 | 0.00 | 0.00 | 0.00 | 70 | 1012.0 |
| 20260501221058 | 17 | 32 | 0.0 | 3.2 | 0.00 | 0.00 | 0.00 | 71 | 1011.8 |
| 20260501220549 | 17 | 181 | 1.6 | 4.8 | 0.00 | 0.00 | 0.00 | 68 | 1011.7 |
| 20260501215548 | 17 | 181 | 1.6 | 6.4 | 0.00 | 0.00 | 0.00 | 68 | 1012.0 |
| 20260501214103 | 17 | 169 | 0.0 | 3.2 | 0.00 | 0.00 | 0.00 | 71 | 1012.5 |
| 20260501213555 | 17 | 169 | 1.6 | 4.8 | 0.00 | 0.00 | 0.00 | 69 | 1012.5 |
| 20260501213105 | 17 | 169 | 1.6 | 4.8 | 0.00 | 0.00 | 0.00 | 68 | 1012.7 |
| 20260501212556 | 17 | 169 | 0.0 | 1.6 | 0.00 | 0.00 | 0.00 | 69 | 1012.7 |
| 20260501212048 | 17 | 169 | 0.0 | 1.6 | 0.00 | 0.00 | 0.00 | 70 | 1012.7 |
| 20260501211555 | 17 | 169 | 0.0 | 3.2 | 0.00 | 0.00 | 0.00 | 68 | 1012.6 |
| 20260501211047 | 17 | 169 | 0.0 | 1.6 | 0.00 | 0.00 | 0.00 | 68 | 1012.6 |
| 20260501210557 | 17 | 169 | 0.0 | 3.2 | 0.00 | 0.00 | 0.00 | 69 | 1012.5 |
| 20260501210121 | 17 | 169 | 1.6 | 3.2 | 0.00 | 0.00 | 0.00 | 67 | 1012.6 |
| 20260501205603 | 17 | 174 | 0.0 | 3.2 | 0.00 | 0.00 | 0.00 | 68 | 1012.7 |
| 20260501205058 | 17 | 174 | 0.0 | 3.2 | 0.00 | 0.00 | 0.00 | 70 | 1013.0 |
| 20260501204550 | 17 | 176 | 0.0 | 1.6 | 0.00 | 0.00 | 0.00 | 68 | 1013.2 |
| 20260501204045 | 17 | 176 | 0.0 | 1.6 | 0.00 | 0.00 | 0.00 | 70 | 1013.3 |
| 20260501203051 | 17 | 176 | 0.0 | 3.2 | 0.00 | 0.00 | 0.00 | 71 | 1013.5 |
| 20260501202602 | 16 | 176 | 1.6 | 3.2 | 0.00 | 0.00 | 0.00 | 68 | 1013.7 |
| 20260501202054 | 16 | 242 | 0.0 | 3.2 | 0.00 | 0.00 | 0.00 | 72 | 1013.8 |
| 20260501201101 | 16 | 242 | 1.6 | 3.2 | 0.00 | 0.00 | 0.00 | 68 | 1013.7 |
| 20260501200553 | 16 | 327 | 0.0 | 1.6 | 0.00 | 0.00 | 0.00 | 73 | 1013.8 |
| 20260501195548 | 16 | 25 | 0.0 | 1.6 | 0.00 | 0.00 | 0.00 | 71 | 1013.9 |
| 20260501194555 | 16 | 67 | 0.0 | 1.6 | 0.00 | 0.00 | 0.00 | 71 | 1013.6 |
| 20260501193559 | 16 | 171 | 0.0 | 1.6 | 0.00 | 0.00 | 0.00 | 70 | 1013.9 |
| 20260501193049 | 17 | 171 | 0.0 | 3.2 | 0.00 | 0.00 | 0.00 | 69 | 1013.9 |
| 20260501192559 | 16 | 171 | 0.0 | 4.8 | 0.00 | 0.00 | 0.00 | 66 | 1013.9 |
| 20260501191054 | 16 | 171 | 0.0 | 0.0 | 0.00 | 0.00 | 0.00 | 70 | 1014.0 |
| 20260501190604 | 16 | 171 | 0.0 | 0.0 | 0.00 | 0.00 | 0.00 | 69 | 1013.9 |
| 20260501190055 | 16 | 171 | 0.0 | 0.0 | 0.00 | 0.00 | 0.00 | 69 | 1013.8 |
| 20260501185604 | 16 | 171 | 0.0 | 0.0 | 0.00 | 0.00 | 0.00 | 69 | 1013.8 |
| 20260501185056 | 16 | 171 | 0.0 | 1.6 | 0.00 | 0.00 | 0.00 | 70 | 1013.9 |
| 20260501184058 | 16 | 171 | 0.0 | 0.0 | 0.00 | 0.00 | 0.00 | 70 | 1014.0 |
| 20260501183548 | 16 | 171 | 0.0 | 1.6 | 0.00 | 0.00 | 0.00 | 69 | 1014.0 |
| 20260501182551 | 16 | 171 | 0.0 | 1.6 | 0.00 | 0.00 | 0.00 | 67 | 1014.1 |
| 20260501182101 | 16 | 171 | 0.0 | 1.6 | 0.00 | 0.00 | 0.00 | 65 | 1014.1 |
| 20260501181552 | 16 | 171 | 0.0 | 0.0 | 0.00 | 0.00 | 0.00 | 68 | 1014.2 |
| 20260501181104 | 16 | 171 | 0.0 | 0.0 | 0.00 | 0.00 | 0.00 | 69 | 1014.2 |
| 20260501180556 | 16 | 171 | 0.0 | 0.0 | 0.00 | 0.00 | 0.00 | 69 | 1014.1 |
| 20260501180104 | 16 | 227 | 0.0 | 0.0 | 0.00 | 0.00 | 0.00 | 69 | 1014.1 |
| 20260501175551 | 16 | 227 | 0.0 | 0.0 | 0.00 | 0.00 | 0.00 | 69 | 1014.2 |
| 20260501175046 | 16 | 227 | 0.0 | 0.0 | 0.00 | 0.00 | 0.00 | 69 | 1014.2 |
| 20260501174601 | 16 | 227 | 0.0 | 1.6 | 0.00 | 0.00 | 0.00 | 68 | 1014.3 |
| 20260501174053 | 16 | 227 | 0.0 | 4.8 | 0.00 | 0.00 | 0.00 | 68 | 1014.2 |